Regional Weather Roundup
Issued by NWS

Home | Current Version | Previous Version | Text Only | Print | Product List | Glossary Off
Versions: 1 2 3 4 5 6 7 8 9 10 11 12 13 14 15 16 17 18 19 20 21 22 23 24 25 26 27 28 29 30 31 32 33 34 35 36 37 38 39 40 41 42 43 44 45 46 47 48 49 50

000
ASUS43 KLSX 060259
RWRMO

WEATHER SUMMARY FOR MISSOURI
NATIONAL WEATHER SERVICE SPRINGFIELD MO
1000 PM CDT SUN JUL 05 2015

NOTE: "FAIR" INDICATES FEW OR NO CLOUDS BELOW 12,000 FEET WITH NO
       SIGNIFICANT WEATHER AND/OR OBSTRUCTIONS TO VISIBILITY.
       CURRENT SKY AND/OR WEATHER CONDITIONS ARE NOT AVAILABLE FOR
       CHILLICOTHE AND FARMINGTON.

MOZ001>031-035>038-043-044-053-054-060400-
...NORTHERN AND WESTERN MISSOURI...

CITY           SKY/WX    TMP DP  RH WIND       PRES   REMARKS
KANSAS CTY INT PTCLDY    83  74  74 S13       29.89S
KANSAS C DTWN  CLEAR     85  74  69 SE14G20   29.89R HX  92
LEE`S SUMMIT   CLEAR     81  69  67 S14G21    29.93R
ST JOSEPH      CLEAR     83  74  74 S13       29.86F
CHILLICOTHE      N/A     82  73  74 SE7       29.93R
KIRKSVILLE     CLEAR     74  68  81 S8        29.97R

$$
MOZ066>068-077>081-088>096-101>105-060400-
...SOUTHWEST MISSOURI...

CITY           SKY/WX    TMP DP  RH WIND       PRES   REMARKS
SPRINGFIELD    PTCLDY    72  66  81 S10       30.02R
JOPLIN         CLOUDY    77  68  73 S7        29.97R

$$
MOZ032>034-039>042-045>050-055>058-069>072-060400-
...CENTRAL MISSOURI...

CITY           SKY/WX    TMP DP  RH WIND       PRES   REMARKS
COLUMBIA       CLEAR     77  71  82 SE8       29.97S
JEFFERSON CITY CLEAR     78  71  79 E8        29.96R
ROLLA          CLEAR     75  70  84 SE9       30.00S
SEDALIA        CLEAR     76  68  76 S7        29.97R
WHITEMAN AFB   CLEAR     75  68  78 S8        29.93S
OSAGE BEACH    CLEAR     75  66  73 S5        29.99R

$$
MOZ051-052-059>065-060400-
...EAST CENTRAL MISSOURI...

CITY           SKY/WX    TMP DP  RH WIND       PRES   REMARKS
ST LOUIS INTL  MOCLDY    82  66  58 SE10      30.02R
SPIRIT OF STL  PTCLDY    77  69  76 SE5       30.00R
ST CHARLES     PTCLDY    76  70  82 SE6       30.00R

$$
MOZ072>076-082>087-097>100-106>115-060400-
...SOUTH CENTRAL AND SOUTHEAST MISSOURI...

CITY           SKY/WX    TMP DP  RH WIND       PRES   REMARKS
CAPE GIRARDEAU CLEAR     74  70  87 SE3       30.04S
FARMINGTON     PTCLDY    73  70  88 SE5       30.09S
POPLAR BLUFF   CLEAR     77  73  87 S3        30.04R
WEST PLAINS    PTCLDY    75  70  84 CALM      30.07R

$$



USA.gov is the U.S. government's official web portal to all federal, state and local government web resources and services.